QPF
0.00 0.00 0.00 0.00 0.00 0.00 0.00 0.00 0.00 0.00 0.00 0.00 0.00 0.00 0.00 0.00 0.00 0.00 0.00 0.00 0.00 0.00 0.00 0.00 0.00 0.00 0.00 0.00 0.00 0.00 0.04 0.03 0.02 0.00 0.00 0.00 0.00 0.00 0.01 0.04 0.02 0.03 0.04 0.03
0.00 0.00 0.00 0.00 0.00 0.00 0.00 0.00 0.00 0.00 0.00 0.00 0.00 0.00 0.00 0.00 0.00 0.00 0.00 0.00 0.00 0.00 0.00 0.00 0.00 0.00 0.00 0.00 0.00 0.02 0.01 0.02 0.02 0.01 0.01 0.00 0.00 0.00 0.01 0.04 0.05 0.01 0.06 0.05
0.00 0.00 0.00 0.00 0.00 0.00 0.00 0.00 0.00 0.00 0.00 0.00 0.00 0.00 0.00 0.00 0.00 0.00 0.00 0.00 0.00 0.00 0.00 0.00 0.00 0.00 0.00 0.00 0.00 0.02 0.01 0.00 0.01 0.01 0.04 0.07 0.05 0.03 0.01 0.04 0.04 0.02 0.03 0.02
0.00 0.00 0.00 0.00 0.00 0.00 0.00 0.00 0.00 0.00 0.00 0.00 0.00 0.00 0.00 0.00 0.00 0.00 0.00 0.00 0.00 0.00 0.00 0.00 0.00 0.01 0.00 0.00 0.00 0.00 0.02 0.01 0.00 0.00 0.00 0.04 0.05 0.06 0.03 0.04 0.04 0.02 0.00 0.00
0.00 0.00 0.00 0.00 0.00 0.00 0.00 0.00 0.00 0.00 0.00 0.00 0.00 0.00 0.00 0.00 0.00 0.00 0.00 0.00 0.00 0.00 0.00 0.00 0.00 0.00 0.01 0.01 0.00 0.05 0.11 0.06 0.01 0.00 0.00 0.00 0.00 0.02 0.07 0.08 0.06 0.03 0.00 0.03
0.00 0.00 0.00 0.00 0.00 0.00 0.00 0.00 0.00 0.00 0.00 0.00 0.00 0.00 0.00 0.00 0.00 0.00 0.00 0.00 0.00 0.00 0.00 0.00 0.00 0.00 0.00 0.00 0.00 0.01 0.07 0.10 0.03 0.00 0.02 0.04 0.01 0.00 0.00 0.01 0.02 0.01 0.03 0.05
0.00 0.00 0.00 0.00 0.00 0.00 0.00 0.00 0.00 0.00 0.00 0.00 0.00 0.00 0.00 0.00 0.00 0.00 0.00 0.00 0.00 0.00 0.00 0.00 0.00 0.00 0.00 0.00 0.00 0.00 0.02 0.03 0.04 0.03 0.08 0.14 0.01 0.00 0.00 0.00 0.03 0.03 0.01 0.00
0.00 0.00 0.00 0.00 0.00 0.00 0.00 0.00 0.00 0.00 0.00 0.00 0.00 0.00 0.00 0.00 0.00 0.00 0.00 0.00 0.00 0.00 0.00 0.00 0.00 0.00 0.01 0.02 0.01 0.00 0.00 0.03 0.07 0.19 0.26 0.10 0.01 0.00 0.00 0.01 0.11 0.00 0.00 0.00
0.00 0.00 0.00 0.00 0.00 0.00 0.00 0.00 0.00 0.00 0.01 0.00 0.00 0.00 0.00 0.00 0.00 0.00 0.00 0.00 0.00 0.00 0.01 0.01 0.01 0.01 0.03 0.06 0.04 0.00 0.00 0.03 0.06 0.08 0.33 0.21 0.10 0.01 0.00 0.00 0.07 0.01 0.00 0.00
0.01 0.00 0.00 0.00 0.00 0.00 0.00 0.00 0.00 0.00 0.00 0.00 0.00 0.00 0.00 0.00 0.00 0.00 0.01 0.00 0.00 0.01 0.01 0.03 0.05 0.04 0.02 0.08 0.04 0.00 0.00 0.02 0.03 0.08 0.22 0.24 0.11 0.02 0.00 0.00 0.02 0.00 0.00 0.00
0.01 0.01 0.00 0.00 0.00 0.00 0.00 0.02 0.00 0.00 0.00 0.00 0.00 0.00 0.00 0.00 0.00 0.01 0.01 0.02 0.04 0.01 0.02 0.08 0.04 0.08 0.12 0.10 0.05 0.03 0.04 0.04 0.03 0.04 0.09 0.07 0.00 0.00 0.00 0.01 0.00 0.00 0.00 0.00
0.02 0.02 0.00 0.00 0.00 0.00 0.01 0.03 0.00 0.00 0.00 0.00 0.00 0.00 0.00 0.00 0.00 0.00 0.00 0.01 0.01 0.01 0.03 0.03 0.02 0.06 0.12 0.16 0.17 0.08 0.08 0.06 0.24 0.11 0.12 0.02 0.00 0.00 0.00 0.00 0.00 0.00 0.00 0.00
0.01 0.01 0.00 0.00 0.00 0.00 0.00 0.04 0.01 0.00 0.00 0.00 0.00 0.00 0.00 0.00 0.00 0.00 0.00 0.02 0.02 0.02 0.03 0.03 0.02 0.04 0.05 0.07 0.15 0.15 0.06 0.01 0.06 0.04 0.02 0.00 0.00 0.00 0.00 0.00 0.00 0.00 0.00 0.00
0.01 0.01 0.00 0.00 0.00 0.00 0.00 0.02 0.03 0.01 0.01 0.00 0.01 0.00 0.00 0.00 0.00 0.00 0.00 0.01 0.00 0.00 0.00 0.01 0.01 0.02 0.05 0.03 0.04 0.05 0.01 0.00 0.00 0.02 0.01 0.00 0.00 0.01 0.02 0.01 0.00 0.00 0.00 0.00
0.01 0.00 0.00 0.00 0.00 0.00 0.01 0.01 0.03 0.01 0.02 0.04 0.01 0.00 0.00 0.00 0.00 0.00 0.00 0.00 0.00 0.00 0.01 0.01 0.01 0.02 0.05 0.02 0.07 0.04 0.00 0.00 0.00 0.03 0.01 0.01 0.02 0.03 0.01 0.02 0.02 0.02 0.01 0.01
0.01 0.00 0.00 0.00 0.00 0.00 0.03 0.02 0.01 0.00 0.02 0.02 0.01 0.00 0.00 0.00 0.00 0.00 0.00 0.00 0.00 0.00 0.00 0.00 0.00 0.02 0.04 0.01 0.08 0.05 0.00 0.00 0.00 0.01 0.01 0.01 0.03 0.04 0.02 0.02 0.01 0.01 0.00 0.00
0.01 0.00 0.00 0.00 0.00 0.01 0.03 0.02 0.03 0.01 0.01 0.02 0.02 0.01 0.00 0.00 0.00 0.01 0.02 0.00 0.00 0.00 0.01 0.00 0.01 0.01 0.02 0.02 0.04 0.01 0.00 0.00 0.01 0.02 0.05 0.05 0.04 0.03 0.02 0.01 0.00 0.00 0.00 0.00
0.01 0.00 0.00 0.00 0.01 0.02 0.02 0.01 0.00 0.00 0.04 0.05 0.03 0.01 0.01 0.00 0.01 0.04 0.04 0.01 0.00 0.00 0.00 0.01 0.02 0.01 0.02 0.03 0.00 0.00 0.00 0.02 0.04 0.05 0.05 0.03 0.01 0.00 0.00 0.00 0.00 0.00 0.00 0.00
0.00 0.00 0.01 0.03 0.02 0.02 0.01 0.00 0.00 0.02 0.12 0.08 0.02 0.01 0.07 0.02 0.04 0.08 0.05 0.03 0.02 0.01 0.02 0.01 0.01 0.02 0.01 0.00 0.00 0.00 0.01 0.05 0.06 0.05 0.02 0.00 0.00 0.00 0.00 0.00 0.00 0.00 0.00 0.00
0.01 0.01 0.04 0.03 0.01 0.01 0.00 0.02 0.02 0.05 0.07 0.03 0.01 0.01 0.08 0.02 0.01 0.04 0.05 0.03 0.01 0.03 0.02 0.00 0.01 0.01 0.00 0.00 0.00 0.00 0.00 0.02 0.03 0.04 0.01 0.00 0.00 0.00 0.00 0.00 0.00 0.00 0.00 0.00
0.01 0.05 0.11 0.05 0.02 0.03 0.06 0.03 0.03 0.02 0.03 0.01 0.00 0.01 0.04 0.02 0.01 0.02 0.02 0.04 0.03 0.02 0.02 0.01 0.01 0.02 0.00 0.00 0.00 0.00 0.00 0.00 0.00 0.00 0.00 0.00 0.00 0.00 0.00 0.00 0.00 0.00 0.00 0.00
0.02 0.07 0.05 0.04 0.03 0.05 0.03 0.01 0.01 0.01 0.01 0.00 0.00 0.00 0.01 0.04 0.03 0.07 0.04 0.02 0.02 0.01 0.04 0.01 0.03 0.01 0.00 0.00 0.00 0.00 0.00 0.00 0.00 0.00 0.00 0.00 0.00 0.00 0.00 0.00 0.00 0.00 0.00 0.00
0.12 0.07 0.04 0.05 0.03 0.02 0.00 0.00 0.00 0.00 0.00 0.01 0.00 0.00 0.00 0.03 0.02 0.02 0.03 0.01 0.02 0.04 0.05 0.05 0.02 0.00 0.00 0.00 0.00 0.00 0.00 0.00 0.00 0.00 0.00 0.00 0.00 0.00 0.00 0.00 0.00 0.00 0.00 0.00
0.08 0.05 0.03 0.02 0.01 0.00 0.00 0.02 0.02 0.02 0.01 0.01 0.01 0.01 0.01 0.02 0.01 0.00 0.02 0.05 0.05 0.06 0.05 0.03 0.00 0.00 0.00 0.00 0.00 0.00 0.00 0.00 0.00 0.00 0.00 0.00 0.00 0.00 0.00 0.00 0.00 0.00 0.00 0.00
0.07 0.02 0.01 0.01 0.01 0.00 0.01 0.00 0.00 0.00 0.00 0.02 0.02 0.02 0.02 0.02 0.02 0.02 0.04 0.06 0.06 0.05 0.05 0.01 0.00 0.00 0.00 0.00 0.00 0.00 0.00 0.00 0.00 0.00 0.00 0.00 0.00 0.00 0.00 0.00 0.00 0.00 0.00 0.00
0.01 0.00 0.00 0.00 0.00 0.00 0.00 0.00 0.01 0.00 0.01 0.01 0.01 0.04 0.03 0.04 0.02 0.04 0.04 0.03 0.04 0.01 0.00 0.01 0.00 0.00 0.00 0.00 0.00 0.00 0.00 0.00 0.00 0.00 0.00 0.00 0.00 0.00 0.00 0.00 0.00 0.00 0.00 0.00
0.00 0.00 0.00 0.00 0.00 0.00 0.00 0.00 0.00 0.00 0.01 0.03 0.03 0.06 0.05 0.04 0.01 0.00 0.00 0.01 0.01 0.00 0.01 0.00 0.00 0.00 0.00 0.00 0.00 0.00 0.00 0.00 0.00 0.00 0.00 0.00 0.00 0.00 0.00 0.00 0.00 0.00 0.00 0.00
MSLP
1014.26 1014.34 1014.53 1014.74 1015.11 1014.67 1014.59 1013.33 1012.11 1012.46 1012.48 1011.74 1010.59 1010.04 1010.09 1010.82 1010.43 1010.64 1010.43 1010.61 1010.13 1009.76 1009.51 1009.09 1008.54 1007.94 1007.55 1007.41 1007.16 1007.25 1007.58 1007.80 1005.45 1002.81 1001.00 1000.65 1000.67 1000.74 1001.66 1002.73 1002.61 1002.62 1002.51 1002.76
1014.32 1014.48 1014.78 1014.92 1014.97 1014.89 1014.53 1012.76 1012.02 1012.43 1012.44 1011.23 1010.27 1010.82 1010.90 1010.89 1010.84 1011.02 1010.97 1010.84 1010.89 1010.68 1010.41 1010.03 1009.11 1008.74 1008.58 1008.66 1008.59 1008.67 1008.69 1008.05 1006.42 1003.85 1002.17 1000.98 1001.31 1001.26 1002.50 1002.34 1002.92 1002.77 1003.28 1002.52
1014.32 1014.58 1014.80 1014.92 1015.03 1015.10 1015.16 1013.02 1012.58 1011.99 1011.46 1010.97 1010.66 1011.02 1011.04 1011.36 1011.99 1011.85 1011.97 1011.66 1011.68 1011.33 1010.80 1010.43 1009.93 1009.49 1009.14 1009.40 1009.54 1009.62 1010.14 1009.20 1008.40 1006.38 1004.38 1004.82 1003.82 1003.14 1002.49 1002.01 1002.54 1002.38 1002.28 1002.46
1014.51 1014.84 1015.10 1015.23 1015.12 1015.14 1015.40 1013.49 1012.70 1011.81 1011.49 1011.24 1011.16 1011.58 1011.69 1011.60 1012.09 1012.32 1012.20 1012.34 1012.32 1012.00 1011.35 1010.92 1010.45 1009.94 1009.80 1009.58 1009.38 1009.39 1009.80 1009.46 1008.76 1007.55 1005.58 1005.06 1004.62 1004.21 1003.14 1003.07 1003.00 1002.20 1002.08 1002.05
1014.68 1014.91 1015.20 1015.33 1015.28 1015.33 1014.90 1013.88 1013.04 1012.00 1011.52 1011.84 1011.69 1012.22 1012.03 1011.74 1011.91 1012.40 1012.16 1012.64 1012.30 1011.74 1011.49 1011.28 1010.94 1010.56 1010.38 1010.00 1009.70 1009.68 1010.13 1009.42 1008.78 1007.34 1006.42 1005.32 1003.99 1002.82 1003.00 1003.29 1003.04 1002.67 1002.65 1002.00
1014.94 1015.12 1015.12 1015.29 1015.59 1015.56 1014.40 1014.42 1013.49 1012.58 1012.08 1012.15 1011.92 1011.90 1012.06 1012.36 1012.75 1012.76 1012.54 1012.29 1012.04 1011.98 1011.90 1011.68 1011.25 1011.04 1010.73 1010.36 1010.12 1009.91 1010.30 1010.53 1009.12 1007.31 1006.47 1005.24 1003.15 1001.34 1001.58 1002.08 1002.71 1002.04 1002.30 1003.89
1014.84 1015.10 1015.34 1015.58 1015.80 1016.18 1015.62 1014.33 1013.48 1012.80 1012.32 1011.79 1011.98 1012.30 1012.64 1012.82 1012.91 1012.87 1012.49 1012.32 1012.29 1012.29 1012.23 1012.04 1011.23 1010.34 1009.46 1008.98 1008.69 1008.96 1009.18 1009.76 1009.65 1008.13 1007.34 1005.48 1001.88 1000.49 1000.38 1001.32 1002.77 1003.98 1004.00 1004.86
1015.06 1015.38 1015.71 1015.90 1016.09 1016.16 1015.56 1014.51 1014.20 1013.33 1012.98 1011.94 1012.31 1012.93 1013.16 1013.15 1013.05 1012.91 1012.64 1012.31 1012.37 1012.62 1012.70 1011.97 1010.41 1009.20 1008.23 1007.18 1006.77 1007.18 1008.11 1008.84 1009.31 1008.52 1007.78 1005.80 1001.92 1000.90 1000.73 1001.46 1005.20 1005.62 1005.54 1006.30
1015.18 1015.62 1015.94 1016.20 1016.20 1016.20 1016.00 1015.14 1014.79 1014.33 1013.98 1013.06 1012.76 1013.20 1013.24 1013.03 1012.65 1012.64 1012.54 1012.46 1012.67 1013.00 1012.92 1012.51 1011.26 1009.88 1008.74 1007.52 1006.63 1006.12 1007.06 1007.96 1009.54 1009.36 1008.84 1006.27 1004.99 1003.52 1002.32 1002.41 1006.06 1007.51 1007.85 1009.09
1015.35 1015.74 1016.08 1016.28 1016.34 1016.47 1016.47 1015.79 1015.61 1015.00 1014.93 1013.79 1013.79 1013.81 1013.95 1013.53 1013.64 1013.31 1012.98 1013.12 1012.83 1012.86 1013.15 1012.76 1011.68 1010.62 1009.67 1008.36 1006.99 1006.39 1007.20 1008.52 1009.23 1009.58 1009.43 1007.57 1007.39 1005.83 1003.53 1004.87 1009.29 1009.62 1010.44 1011.50
1015.41 1015.80 1016.16 1016.42 1016.58 1016.74 1016.77 1016.17 1015.91 1015.92 1015.49 1014.66 1014.37 1014.34 1014.09 1013.98 1014.05 1013.88 1013.83 1013.67 1013.99 1013.54 1013.47 1012.95 1012.67 1012.17 1011.21 1009.11 1007.20 1006.86 1007.70 1008.36 1008.71 1009.04 1008.78 1009.25 1009.23 1007.16 1008.26 1010.75 1010.90 1011.34 1012.23 1013.01
1015.38 1015.81 1016.22 1016.53 1016.78 1017.00 1017.19 1016.57 1016.50 1016.61 1016.11 1015.47 1015.19 1014.94 1014.79 1014.77 1014.72 1014.74 1014.20 1014.30 1014.14 1014.70 1014.80 1014.22 1013.77 1012.80 1011.26 1010.30 1008.67 1008.05 1008.92 1008.88 1009.27 1010.53 1011.30 1011.76 1012.00 1012.20 1012.58 1012.32 1012.52 1012.97 1013.50 1014.28
1015.42 1015.93 1016.31 1016.62 1016.90 1017.08 1017.27 1017.41 1016.79 1016.59 1016.44 1015.44 1014.57 1013.88 1013.98 1014.48 1014.82 1014.98 1014.96 1014.32 1014.88 1015.16 1015.71 1015.52 1014.37 1013.07 1011.80 1010.90 1010.52 1010.27 1010.02 1009.79 1010.54 1011.64 1012.73 1013.18 1013.44 1013.56 1013.90 1014.04 1014.23 1014.54 1015.03 1015.61
1015.53 1016.00 1016.37 1016.72 1016.97 1017.12 1017.38 1017.13 1016.99 1016.70 1016.42 1015.71 1014.31 1013.76 1013.81 1013.98 1014.24 1014.51 1014.91 1015.06 1015.09 1015.19 1014.95 1014.95 1014.52 1013.62 1012.53 1011.65 1011.46 1011.70 1012.53 1012.08 1012.61 1013.30 1013.89 1014.28 1014.71 1015.02 1015.09 1015.37 1015.65 1015.98 1016.38 1016.74
1015.58 1016.08 1016.48 1016.82 1017.07 1017.27 1017.37 1017.12 1017.28 1017.21 1017.24 1016.31 1015.12 1014.32 1013.64 1013.60 1013.98 1014.18 1014.49 1014.84 1014.97 1015.01 1015.01 1014.76 1014.18 1013.08 1012.91 1011.94 1011.84 1013.39 1014.35 1014.80 1014.88 1014.89 1015.50 1015.60 1016.23 1016.30 1016.23 1016.35 1016.54 1016.81 1017.07 1017.56
1015.68 1016.16 1016.56 1016.94 1017.20 1017.53 1017.48 1017.86 1017.16 1017.11 1017.26 1017.31 1015.75 1014.03 1013.37 1013.43 1013.68 1013.94 1014.08 1014.52 1015.05 1015.56 1015.45 1014.78 1013.63 1012.72 1013.09 1012.41 1013.26 1015.29 1015.76 1015.94 1016.11 1016.40 1016.56 1016.60 1016.96 1017.08 1017.00 1017.19 1017.55 1017.80 1017.99 1018.32
1015.76 1016.28 1016.72 1017.05 1017.32 1017.30 1017.66 1018.06 1018.27 1017.63 1017.99 1018.15 1016.40 1014.09 1013.02 1013.17 1013.44 1013.86 1014.13 1014.40 1014.77 1015.44 1015.10 1013.94 1013.11 1012.43 1012.62 1012.79 1014.12 1015.92 1016.54 1016.78 1017.07 1017.11 1017.03 1017.07 1017.31 1017.50 1017.83 1017.90 1017.88 1018.06 1018.29 1018.74
1015.90 1016.42 1016.84 1017.13 1017.38 1017.64 1017.78 1017.76 1018.16 1018.36 1018.86 1018.64 1016.79 1014.46 1013.50 1013.44 1013.37 1013.82 1014.40 1014.52 1015.06 1014.95 1014.33 1013.19 1012.56 1012.26 1012.44 1013.50 1015.52 1016.40 1017.07 1017.39 1017.64 1017.62 1017.59 1017.54 1017.56 1017.60 1017.76 1017.58 1017.84 1018.46 1019.17 1019.84
1016.02 1016.47 1016.94 1017.21 1017.34 1017.59 1017.66 1017.95 1018.34 1018.71 1019.23 1017.87 1016.07 1014.33 1013.42 1013.53 1013.42 1013.62 1014.04 1014.18 1014.18 1013.41 1013.28 1012.58 1012.25 1012.57 1013.53 1015.08 1016.01 1016.86 1017.38 1017.65 1017.90 1017.98 1018.02 1017.99 1017.96 1018.00 1018.01 1018.16 1018.61 1019.41 1020.33 1021.02
1016.17 1016.70 1017.14 1017.11 1017.26 1017.46 1017.80 1018.51 1018.70 1018.64 1018.13 1017.19 1015.11 1013.72 1013.20 1013.26 1013.37 1013.51 1013.68 1013.71 1013.20 1012.39 1012.00 1011.85 1012.43 1013.49 1015.32 1016.24 1016.92 1017.34 1017.72 1018.06 1018.40 1018.32 1018.54 1018.56 1018.63 1019.05 1019.57 1020.04 1020.41 1020.91 1021.64 1022.32
1016.24 1016.68 1016.72 1016.47 1017.02 1017.24 1017.13 1017.12 1017.16 1016.56 1015.77 1014.49 1013.38 1013.02 1012.71 1012.76 1013.18 1013.21 1013.03 1012.85 1012.53 1011.93 1011.57 1011.90 1012.61 1014.15 1015.97 1017.05 1017.72 1018.17 1018.44 1018.62 1018.94 1019.34 1019.73 1019.84 1019.82 1020.18 1020.87 1021.70 1022.33 1022.92 1023.47 1024.08
1016.01 1016.30 1016.54 1016.97 1016.89 1016.39 1016.04 1015.61 1015.03 1014.40 1013.25 1012.14 1012.24 1012.20 1012.07 1012.48 1012.59 1013.04 1012.93 1012.50 1012.28 1011.75 1011.86 1012.41 1013.21 1015.76 1016.92 1017.82 1018.62 1019.18 1019.62 1020.01 1020.38 1020.62 1020.94 1021.16 1021.33 1021.69 1022.31 1023.03 1023.70 1024.34 1024.88 1025.29
1016.19 1016.00 1015.95 1015.92 1015.30 1015.06 1014.68 1014.16 1013.73 1013.07 1012.26 1012.25 1012.02 1012.25 1012.14 1012.47 1012.54 1013.13 1013.03 1012.74 1012.32 1012.29 1012.54 1013.11 1015.09 1016.73 1017.84 1018.70 1019.50 1020.16 1020.65 1021.11 1021.57 1022.02 1022.37 1022.72 1023.11 1023.37 1023.78 1024.41 1024.99 1025.44 1025.92 1026.37
1015.47 1015.02 1014.96 1014.65 1014.32 1013.86 1013.18 1012.92 1012.64 1012.80 1012.62 1012.48 1012.74 1012.98 1013.07 1013.09 1013.29 1013.48 1013.43 1012.84 1012.79 1012.46 1012.88 1014.32 1016.12 1017.74 1018.90 1019.71 1020.35 1021.16 1021.92 1022.46 1022.80 1023.24 1023.65 1023.99 1024.32 1024.65 1025.12 1025.51 1025.90 1026.30 1026.70 1027.02
1014.58 1013.90 1013.73 1013.69 1013.49 1013.68 1013.68 1013.55 1013.44 1013.38 1013.64 1013.16 1013.64 1013.55 1013.49 1013.37 1013.56 1013.52 1013.28 1013.12 1012.82 1013.10 1014.28 1016.19 1017.73 1019.02 1020.06 1020.90 1021.62 1022.28 1022.84 1023.27 1023.61 1024.09 1024.48 1024.78 1025.00 1025.32 1025.71 1026.10 1026.46 1026.79 1027.04 1027.30
1014.18 1013.84 1013.96 1013.89 1013.72 1013.82 1014.08 1014.01 1013.73 1013.74 1013.99 1013.99 1013.90 1013.40 1013.22 1013.03 1012.86 1013.23 1013.17 1013.24 1013.62 1015.21 1016.60 1017.92 1019.02 1020.04 1020.94 1021.71 1022.42 1022.98 1023.38 1023.81 1024.25 1024.59 1024.86 1025.12 1025.36 1025.68 1026.12 1026.45 1026.69 1026.88 1027.10 1027.29
1014.39 1014.34 1014.48 1014.16 1013.95 1013.80 1014.04 1014.07 1014.07 1014.16 1014.18 1013.81 1013.54 1012.84 1012.48 1012.89 1012.86 1013.04 1013.22 1014.46 1015.73 1016.90 1017.97 1018.92 1019.96 1020.91 1021.80 1022.48 1023.02 1023.42 1023.72 1024.02 1024.37 1024.70 1024.99 1025.31 1025.64 1025.82 1025.72 1025.94 1026.39 1026.46 1027.00 1027.24
Thickness
5393 5397 5399 5402 5400 5411 5416 5433 5450 5446 5449 5467 5482 5488 5489 5465 5485 5484 5485 5482 5485 5485 5484 5484 5485 5486 5487 5492 5491 5486 5487 5475 5503 5538 5568 5573 5573 5570 5566 5544 5552 5559 5561 5560
5388 5391 5392 5394 5397 5403 5412 5438 5448 5443 5444 5458 5479 5473 5474 5476 5477 5475 5475 5475 5474 5473 5469 5463 5473 5472 5472 5469 5467 5462 5467 5478 5488 5522 5547 5567 5552 5563 5551 5555 5548 5545 5534 5552
5383 5385 5388 5390 5394 5398 5404 5434 5430 5446 5454 5465 5469 5463 5466 5463 5459 5460 5458 5461 5457 5456 5456 5458 5456 5457 5457 5453 5449 5442 5440 5457 5458 5487 5514 5504 5515 5527 5545 5557 5540 5549 5552 5549
5379 5379 5380 5385 5392 5397 5401 5423 5429 5445 5441 5454 5459 5455 5456 5457 5446 5448 5451 5440 5436 5435 5437 5440 5442 5447 5443 5445 5446 5446 5439 5434 5457 5472 5500 5504 5506 5504 5525 5530 5533 5544 5555 5558
5373 5376 5380 5383 5389 5393 5404 5405 5429 5440 5450 5445 5448 5434 5444 5451 5449 5440 5440 5425 5431 5438 5431 5433 5426 5432 5431 5430 5438 5437 5422 5433 5451 5464 5486 5496 5501 5522 5521 5519 5521 5530 5538 5558
5368 5373 5378 5382 5383 5389 5408 5408 5418 5429 5434 5436 5440 5441 5440 5435 5430 5430 5430 5429 5428 5422 5422 5425 5427 5423 5423 5423 5421 5422 5418 5404 5428 5456 5483 5490 5501 5533 5535 5534 5529 5546 5542 5530
5369 5371 5374 5377 5379 5380 5390 5405 5416 5422 5427 5440 5436 5432 5429 5424 5423 5418 5424 5423 5416 5417 5416 5416 5421 5427 5434 5436 5436 5433 5424 5420 5424 5443 5465 5464 5526 5545 5547 5541 5528 5519 5525 5525
5363 5365 5367 5370 5373 5377 5387 5399 5405 5415 5413 5436 5429 5419 5415 5416 5417 5413 5413 5416 5413 5407 5404 5407 5422 5437 5446 5452 5449 5444 5443 5434 5423 5439 5456 5480 5527 5534 5538 5535 5487 5503 5511 5515
5359 5360 5362 5364 5369 5374 5381 5391 5395 5401 5401 5415 5419 5410 5412 5411 5416 5411 5409 5409 5403 5398 5394 5397 5407 5419 5434 5436 5432 5455 5452 5450 5422 5435 5433 5478 5478 5498 5524 5530 5491 5480 5489 5479
5355 5356 5358 5361 5366 5369 5373 5380 5383 5391 5385 5405 5403 5398 5393 5403 5397 5397 5399 5394 5394 5397 5389 5392 5405 5418 5429 5423 5443 5452 5450 5434 5430 5433 5434 5463 5449 5477 5515 5509 5462 5461 5459 5448
5352 5353 5355 5358 5361 5363 5365 5372 5375 5377 5379 5390 5392 5391 5391 5391 5389 5384 5386 5384 5375 5384 5385 5394 5398 5391 5399 5429 5455 5459 5448 5446 5452 5451 5459 5459 5437 5471 5467 5438 5442 5445 5436 5429
5349 5350 5351 5353 5354 5356 5357 5365 5366 5366 5371 5376 5379 5379 5380 5378 5377 5375 5380 5375 5378 5370 5370 5384 5386 5391 5402 5412 5439 5454 5435 5437 5437 5426 5422 5413 5414 5414 5415 5425 5425 5426 5423 5418
5345 5346 5347 5348 5349 5350 5352 5353 5359 5362 5362 5372 5379 5384 5382 5377 5373 5371 5368 5376 5370 5368 5364 5362 5379 5387 5404 5405 5412 5415 5424 5438 5423 5419 5404 5402 5403 5407 5405 5406 5408 5410 5407 5402
5340 5340 5342 5342 5344 5345 5346 5350 5352 5357 5360 5360 5377 5380 5378 5377 5375 5373 5369 5366 5365 5367 5373 5371 5374 5380 5400 5405 5408 5404 5397 5411 5405 5401 5399 5398 5395 5394 5398 5397 5396 5392 5389 5389
5334 5335 5336 5336 5338 5339 5340 5344 5345 5347 5346 5350 5362 5371 5377 5377 5374 5372 5370 5366 5365 5365 5366 5369 5374 5394 5390 5409 5411 5390 5378 5374 5382 5393 5384 5386 5379 5381 5385 5384 5384 5382 5382 5379
5329 5329 5330 5331 5332 5332 5336 5333 5341 5341 5342 5340 5347 5372 5375 5375 5373 5370 5371 5367 5362 5356 5357 5366 5384 5397 5387 5405 5397 5368 5367 5368 5371 5370 5372 5373 5372 5373 5375 5374 5371 5370 5370 5369
5324 5324 5324 5325 5326 5329 5329 5332 5328 5334 5332 5327 5344 5367 5377 5373 5370 5365 5363 5363 5360 5353 5358 5374 5387 5399 5398 5403 5394 5367 5361 5361 5361 5364 5368 5371 5369 5367 5365 5367 5370 5371 5371 5367
5318 5318 5319 5321 5322 5324 5326 5326 5324 5324 5319 5319 5338 5360 5367 5365 5362 5355 5351 5351 5348 5352 5362 5382 5392 5402 5406 5397 5367 5363 5358 5355 5354 5357 5361 5363 5365 5370 5369 5374 5373 5367 5360 5354
5312 5314 5315 5317 5320 5320 5321 5320 5319 5317 5314 5329 5346 5356 5359 5358 5357 5354 5349 5351 5350 5368 5367 5383 5398 5397 5394 5371 5365 5357 5352 5351 5351 5354 5357 5363 5366 5369 5371 5370 5366 5357 5348 5342
5307 5309 5310 5315 5318 5317 5317 5314 5315 5314 5319 5326 5344 5360 5357 5359 5354 5352 5353 5355 5363 5375 5387 5396 5392 5390 5364 5360 5357 5356 5353 5350 5349 5357 5356 5359 5360 5357 5352 5349 5347 5343 5337 5331
5303 5305 5311 5317 5315 5316 5320 5324 5325 5334 5338 5351 5358 5361 5360 5366 5353 5357 5368 5369 5376 5381 5394 5397 5399 5385 5357 5353 5351 5349 5349 5350 5349 5347 5345 5346 5350 5347 5340 5332 5326 5321 5317 5311
5303 5307 5309 5309 5315 5324 5331 5337 5346 5348 5357 5371 5364 5366 5371 5366 5369 5364 5371 5377 5384 5388 5397 5397 5403 5354 5351 5348 5342 5340 5338 5337 5335 5336 5334 5334 5334 5331 5325 5318 5311 5305 5300 5296
5298 5306 5314 5321 5330 5333 5337 5340 5349 5355 5368 5365 5367 5365 5371 5370 5374 5365 5372 5372 5383 5388 5390 5395 5365 5349 5346 5342 5338 5334 5332 5330 5327 5323 5321 5318 5314 5312 5308 5301 5295 5291 5285 5280
5308 5317 5321 5330 5332 5344 5358 5361 5365 5358 5361 5366 5363 5360 5362 5365 5363 5364 5362 5381 5382 5396 5404 5389 5360 5345 5338 5335 5333 5325 5317 5314 5312 5308 5305 5302 5299 5295 5290 5286 5282 5276 5271 5266
5317 5330 5336 5338 5345 5338 5339 5343 5349 5352 5347 5361 5353 5359 5363 5365 5362 5368 5376 5382 5396 5400 5386 5359 5342 5332 5326 5321 5316 5312 5308 5306 5304 5300 5296 5293 5290 5286 5281 5275 5269 5263 5258 5253
5319 5327 5329 5331 5338 5337 5335 5336 5345 5352 5346 5349 5353 5363 5366 5371 5381 5374 5381 5394 5400 5368 5348 5337 5331 5325 5319 5315 5310 5307 5304 5300 5296 5293 5290 5286 5283 5278 5270 5264 5259 5253 5249 5243
5315 5320 5317 5327 5333 5341 5339 5339 5346 5346 5347 5359 5362 5375 5380 5374 5382 5388 5392 5378 5356 5342 5336 5332 5325 5318 5310 5306 5302 5300 5299 5296 5293 5289 5285 5279 5273 5268 5267 5262 5253 5249 5238 5230